Powrót do katalogu

STARLINK-35643

AktywnyŁącznośćVLEO
NORAD 66456·PAYLOAD·🇺🇸 United States

Wystrzelony Nov 15, 2025 z Cape Canaveral Space Force Station

Loading…

Następne Przeloty (najbliższe 24 godziny)

TLE

ŚwieżeSource: CelesTrak SupGP

Epoka: Sep 15, 2026, 03:30 UTC

1 66456C 25262A   26258.14631944  .00018706  00000+0  67741-3 0  2586
2 66456  43.0025 306.5471 0001365 260.3166 242.8531 15.27575549    14

Śledź STARLINK-35643 w czasie rzeczywistym z AllMySat

Download on the App Store